When you browse on this site, cookies collect data to enhance your experience and personalize the content and advertising you see.
Visit our Privacy Policy to learn more. By continuing to use the site, you agree to this use of cookies and data.
  • In Romania
  • List of Countries
  • For 7 days
  • Water Temperature
  • Satellite Maps
  • Weather Map
  • Weather Widgets
  • user-avatar
    Login

    Hourly Weather Shiraz

    Today, 20 March, Wednesday

    Time Temperature Precipitation Wind Pressure Humidity
    00:00 +9°C° 0 mm 2 mps 633 mmHg 52%
    01:00 +8°C° 0 mm 2 mps 633 mmHg 52%
    02:00 +8°C° 0 mm 2 mps 633 mmHg 51%
    03:00 +8°C° 0 mm 1 mps 633 mmHg 50%
    04:00 +8°C° 0 mm 1 mps 632 mmHg 48%
    05:00 +8°C° 0 mm 1 mps 632 mmHg 47%
    06:00 +8°C° 0 mm 1 mps 632 mmHg 47%
    07:00 +7°C° 0 mm 1 mps 632 mmHg 46%
    08:00 +9°C° 0 mm 1 mps 633 mmHg 38%
    09:00 +11°C° 0 mm 1 mps 634 mmHg 31%
    10:00 +14°C° 0 mm 1 mps 635 mmHg 23%
    11:00 +15°C° 0 mm 2 mps 635 mmHg 20%
    12:00 +17°C° 0 mm 2 mps 635 mmHg 17%
    13:00 +18°C° 0 mm 3 mps 635 mmHg 14%
    14:00 +18°C° 0 mm 4 mps 635 mmHg 14%
    15:00 +19°C° 0 mm 5 mps 635 mmHg 14%
    16:00 +19°C° 0 mm 5 mps 635 mmHg 14%
    17:00 +16°C° 0 mm 5 mps 634 mmHg 18%
    18:00 +15°C° 0 mm 4 mps 634 mmHg 23%
    19:00 +13°C° 0 mm 3 mps 633 mmHg 28%
    20:00 +12°C° 0 mm 3 mps 634 mmHg 32%
    21:00 +12°C° 0 mm 2 mps 634 mmHg 35%
    22:00 +12°C° 0 mm 2 mps 634 mmHg 39%
    23:00 +11°C° 0 mm 1 mps 633 mmHg 40%

    Tomorrow, 21 March, Thursday

    Time Temperature Precipitation Wind Pressure Humidity
    00:00 +11°C° 0 mm 1 mps 633 mmHg 41%
    01:00 +10°C° 0 mm 1 mps 633 mmHg 42%
    02:00 +10°C° 0 mm 1 mps 633 mmHg 42%
    03:00 +10°C° 0 mm 1 mps 633 mmHg 42%
    04:00 +9°C° 0 mm 1 mps 632 mmHg 42%
    05:00 +9°C° 0 mm 1 mps 632 mmHg 43%
    06:00 +9°C° 0 mm 1 mps 633 mmHg 44%
    07:00 +9°C° 0 mm 1 mps 633 mmHg 45%
    08:00 +11°C° 0 mm 1 mps 634 mmHg 38%
    09:00 +13°C° 0 mm 1 mps 635 mmHg 32%
    10:00 +15°C° 0 mm 1 mps 636 mmHg 25%
    11:00 +16°C° 0 mm 2 mps 636 mmHg 25%
    12:00 +17°C° 0 mm 4 mps 636 mmHg 25%
    13:00 +17°C° 0 mm 5 mps 636 mmHg 25%
    14:00 +17°C° 0 mm 5 mps 636 mmHg 26%
    15:00 +17°C° 0 mm 5 mps 635 mmHg 26%
    16:00 +17°C° 0 mm 5 mps 635 mmHg 27%
    17:00 +17°C° 0 mm 4 mps 635 mmHg 30%
    18:00 +16°C° 0 mm 3 mps 634 mmHg 34%
    19:00 +15°C° 0 mm 2 mps 634 mmHg 37%
    20:00 +14°C° 0 mm 2 mps 634 mmHg 39%
    21:00 +13°C° 0 mm 2 mps 635 mmHg 41%
    22:00 +13°C° 0 mm 2 mps 635 mmHg 42%
    23:00 +12°C° 0 mm 2 mps 635 mmHg 43%

    Day after tomorrow, 22 March, Friday

    Time Temperature Precipitation Wind Pressure Humidity
    00:00 +12°C° 0 mm 1 mps 634 mmHg 43%
    01:00 +12°C° 0 mm 1 mps 634 mmHg 44%
    02:00 +11°C° 0 mm 1 mps 634 mmHg 45%
    03:00 +10°C° 0 mm 1 mps 634 mmHg 46%
    04:00 +10°C° 0 mm 1 mps 633 mmHg 46%
    05:00 +10°C° 0 mm 1 mps 634 mmHg 48%
    06:00 +9°C° 0 mm 1 mps 634 mmHg 49%
    07:00 +9°C° 0 mm 1 mps 634 mmHg 50%
    08:00 +11°C° 0 mm 1 mps 635 mmHg 43%
    09:00 +13°C° 0 mm 1 mps 636 mmHg 35%
    10:00 +15°C° 0 mm 1 mps 637 mmHg 28%
    11:00 +16°C° 0 mm 2 mps 637 mmHg 24%
    12:00 +18°C° 0 mm 3 mps 637 mmHg 20%
    13:00 +19°C° 0 mm 5 mps 637 mmHg 16%
    14:00 +19°C° 0 mm 5 mps 637 mmHg 17%
    15:00 +19°C° 0 mm 5 mps 636 mmHg 17%
    16:00 +19°C° 0 mm 6 mps 635 mmHg 18%
    17:00 +17°C° 0 mm 4 mps 635 mmHg 21%
    18:00 +16°C° 0 mm 3 mps 635 mmHg 25%
    19:00 +15°C° 0 mm 2 mps 635 mmHg 28%
    20:00 +14°C° 0 mm 2 mps 635 mmHg 30%
    21:00 +13°C° 0 mm 2 mps 635 mmHg 32%
    22:00 +13°C° 0 mm 1 mps 636 mmHg 33%
    23:00 +12°C° 0 mm 1 mps 635 mmHg 34%

    23 March, Saturday

    Time Temperature Precipitation Wind Pressure Humidity
    00:00 +12°C° 0 mm 1 mps 635 mmHg 35%
    01:00 +11°C° 0 mm 1 mps 635 mmHg 36%
    02:00 +11°C° 0 mm 1 mps 634 mmHg 36%
    03:00 +10°C° 0 mm 1 mps 634 mmHg 37%
    04:00 +10°C° 0 mm 1 mps 634 mmHg 38%
    05:00 +10°C° 0 mm 1 mps 634 mmHg 39%
    06:00 +9°C° 0 mm 1 mps 634 mmHg 41%
    07:00 +8°C° 0 mm 0 mps 635 mmHg 42%
    08:00 +10°C° 0 mm 0 mps 635 mmHg 35%
    09:00 +12°C° 0 mm 0 mps 636 mmHg 28%
    10:00 +14°C° 0 mm 0 mps 637 mmHg 22%
    11:00 +18°C° 0 mm 1 mps 637 mmHg 20%
    12:00 +18°C° 0 mm 2 mps 637 mmHg 19%
    13:00 +19°C° 0 mm 2 mps 637 mmHg 18%
    14:00 +20°C° 0 mm 3 mps 636 mmHg 17%
    15:00 +20°C° 0 mm 3 mps 636 mmHg 16%
    16:00 +20°C° 0 mm 4 mps 635 mmHg 15%
    17:00 +19°C° 0 mm 3 mps 635 mmHg 18%
    18:00 +18°C° 0 mm 3 mps 635 mmHg 22%
    19:00 +17°C° 0 mm 2 mps 634 mmHg 26%
    20:00 +16°C° 0 mm 2 mps 635 mmHg 28%
    21:00 +15°C° 0 mm 1 mps 635 mmHg 31%
    22:00 +14°C° 0 mm 1 mps 635 mmHg 34%
    23:00 +14°C° 0 mm 1 mps 634 mmHg 35%

    24 March, Sunday

    Time Temperature Precipitation Wind Pressure Humidity
    00:00 +14°C° 0 mm 1 mps 634 mmHg 37%
    01:00 +13°C° 0 mm 1 mps 634 mmHg 38%
    02:00 +12°C° 0 mm 0 mps 633 mmHg 41%
    03:00 +11°C° 0 mm 0 mps 633 mmHg 43%
    04:00 +11°C° 0 mm 0 mps 632 mmHg 46%
    05:00 +11°C° 0 mm 0 mps 632 mmHg 47%
    06:00 +11°C° 0 mm 0 mps 632 mmHg 48%
    07:00 +11°C° 0 mm 0 mps 632 mmHg 50%
    08:00 +12°C° 0.2 mm 0 mps 633 mmHg 48%
    09:00 +13°C° 0.2 mm 1 mps 633 mmHg 47%
    10:00 +14°C° 0.2 mm 1 mps 634 mmHg 45%
    11:00 +13°C° 1.8 mm 1 mps 633 mmHg 54%
    12:00 +12°C° 1.8 mm 1 mps 632 mmHg 63%
    13:00 +11°C° 1.8 mm 1 mps 631 mmHg 72%
    14:00 +12°C° 0.2 mm 1 mps 632 mmHg 66%
    15:00 +13°C° 0.2 mm 2 mps 632 mmHg 61%
    16:00 +14°C° 0.2 mm 2 mps 632 mmHg 55%
    17:00 +14°C° 0.2 mm 2 mps 632 mmHg 59%
    18:00 +13°C° 0.2 mm 1 mps 632 mmHg 62%
    19:00 +13°C° 0.2 mm 1 mps 631 mmHg 66%
    20:00 +12°C° 0 mm 1 mps 632 mmHg 66%
    21:00 +12°C° 0 mm 1 mps 632 mmHg 67%
    22:00 +10°C° 0 mm 2 mps 632 mmHg 68%
    23:00 +10°C° 0 mm 1 mps 632 mmHg 69%

    25 March, Monday

    Time Temperature Precipitation Wind Pressure Humidity
    00:00 +10°C° 0 mm 1 mps 632 mmHg 70%
    01:00 +10°C° 0 mm 1 mps 631 mmHg 71%
    02:00 +9°C° 0 mm 1 mps 631 mmHg 72%
    03:00 +9°C° 0 mm 1 mps 631 mmHg 73%
    04:00 +8°C° 0 mm 1 mps 631 mmHg 74%
    05:00 +8°C° 0 mm 1 mps 631 mmHg 74%
    06:00 +8°C° 0 mm 1 mps 632 mmHg 73%
    07:00 +8°C° 0 mm 1 mps 632 mmHg 72%
    08:00 +10°C° 0 mm 1 mps 633 mmHg 62%
    09:00 +12°C° 0 mm 1 mps 634 mmHg 51%
    10:00 +14°C° 0 mm 1 mps 635 mmHg 41%
    11:00 +16°C° 0 mm 2 mps 635 mmHg 35%
    12:00 +18°C° 0 mm 4 mps 636 mmHg 28%
    13:00 +19°C° 0 mm 5 mps 636 mmHg 22%
    14:00 +19°C° 0 mm 6 mps 636 mmHg 23%
    15:00 +18°C° 0 mm 7 mps 635 mmHg 24%
    16:00 +18°C° 0 mm 8 mps 635 mmHg 25%
    17:00 +17°C° 0 mm 6 mps 635 mmHg 30%
    18:00 +15°C° 0 mm 4 mps 635 mmHg 34%
    19:00 +15°C° 0 mm 2 mps 635 mmHg 39%
    20:00 +14°C° 0 mm 1 mps 635 mmHg 42%
    21:00 +14°C° 0 mm 1 mps 635 mmHg 45%
    22:00 +13°C° 0 mm 1 mps 636 mmHg 48%
    23:00 +13°C° 0 mm 1 mps 635 mmHg 50%
    Show more